www.pogodaiklimat.ru

Погода и климат >> Архив погоды >> Индия >> Pune


ПОГОДА в Pune

  • Прогноз погоды в Pune
  • Монитор погоды в Pune
  • Климат города

АРХИВ ПОГОДЫ в Pune

Время (UTC), дата Ветер
(напр.,м/с)
 
Видим.   Явления Облачность Т
(С)
Тd
(С)
f
(%)
Тe
(С)
Тes
(С)
Комфортность P
(гПа)
Po
(гПа)
Тmin
(С)
Tmax
(С)
R
(мм)
R24
(мм)
S
(см)
09 18.09 СЗ 5 4000 м пыльная буря 9/4 360 м
[Cu Sc Ac und]
+30.2 +22.9 65 +40 +42 очень
душно
1009.0 945.5 0.0
12 18.09 З 2 10 км 5/5 800 м
[Cu Sc]
+28.4 +19.2 57 +34 +35 очень
душно
1005.3 944.5 +31.6
15 18.09 З 2 4000 м 5/3 800 м
[Sc Ac trans Ci fib]
+24.4 +20.9 81 +31 +31 очень
душно
1009.3 947.4
18 18.09 З 2 4000 м 9/4 800 м
[Sc Ac trans Ci fib]
+23.4 +20.1 82 +31 +31 очень
душно
1010.3 948.2
21 18.09 З 1 4000 м в посл. час дождь 9/4 800 м
[Sc Ac trans Ci fib]
+22.2 +20.4 90 +29 +29 очень
душно
1008.8 946.6 1
00 19.09 штиль 0 4000 м слабый дождь 9/5 800 м
[Sc Ac trans Ci fib]
+21.6 +20.7 95 +27 +27 душно 1009.9 947.4 2
03 19.09 штиль 0 4000 м слабый дождь 10/5 800 м
[Sc Cs]
+21.2 +20.0 93 +26 +29 душно 1011.9 949.2 +20.9 2
06 19.09 штиль 0 4000 м слабая морось {дождь} 10/4 800 м
[Sc Cs]
+22.4 +20.6 90 +29 +41 очень
душно
1010.9 948.6 0.8
09 19.09 З 1 10 км {морось} 9/4 800 м
[Sc Ac trans]
+26.0 +21.0 74 +33 +39 очень
душно
1007.0 945.4 0.8
12 19.09 З 5 10 км 8/4 800 м
[Sc Ac trans Ci fib]
+26.2 +21.2 74 +33 +33 очень
душно
1005.6 944.4 +28.0 0.8
15 19.09 штиль 0 4000 м 6/3 800 м
[Sc Ac trans Ci fib]
+23.6 +20.6 83 +29 +29 душно 1008.2 946.2 0.8
18 19.09 З 1 4000 м 8/5 800 м
[Sc Ac trans]
+23.0 +20.9 88 +30 +30 очень
душно
1008.9 946.7 0.8
21 19.09 штиль 0 4000 м 8/5 800 м
[Sc Ac trans]
+22.6 +20.8 90 +30 +30 очень
душно
1007.4 945.2 0.8
00 20.09 штиль 0 4000 м 8/5 800 м
[Sc Ac trans]
+22.0 +20.5 91 +28 +28 душно 1006.9 944.6 0.8
03 20.09 штиль 0 10 км 9/5 800 м
[Sc Ac trans]
+23.2 +20.8 86 +31 +32 очень
душно
1008.4 946.4 +21.5 0.8
06 20.09 З 1 10 км 8/3 800 м
[Sc Ac trans]
+26.8 +21.4 72 +34 +43 очень
душно
1007.3 946.0
09 20.09 штиль 0 10 км 9/6 800 м
[Cu Sc Ac trans]
+31.8 +21.1 53 +39 +44 очень
душно
1008.4 948.0
12 20.09 З 1 10 км {гроза, дождь} 9/6 800 м
[Cu Sc Ac trans]
+23.3 +20.6 85 +31 +31 очень
душно
1004.5 942.8 +32.1 11
15 20.09 штиль 0 4000 м 10/5 600 м
[Sc Ac As]
+27.4 +22.7 76 +36 +36 очень
душно
1001.3 943.3
18 20.09 штиль 0 4000 м 8/4 800 м
[Sc Ac trans]
+22.2 +21.1 93 +29 +29 очень
душно
1007.2 945.0 12
21 20.09 штиль 0 4000 м 8/5 800 м
[Sc Ac trans]
+21.4 +20.8 96 +27 +27 душно 1005.8 943.5 12
00 21.09 штиль 0 4000 м 8/4 800 м
[Sc Ac trans]
+21.0 +20.4 96 +26 +26 душно 1005.8 943.3 12
03 21.09 штиль 0 4000 м мгла {туман} 9/5 800 м
[Cu Sc Ac trans Ci fib]
+23.3 +21.5 90 +31 +33 очень
душно
1007.3 945.3 +20.4 12
06 21.09 З 1 10 км 9/4 800 м
[Sc Ac trans Ci fib]
+27.2 +25.5 90 +40 +47 очень
душно
1005.8 944.8
09 21.09 З 1 10 км 10/4 800 м
[Sc Ac trans Ci fib]
+30.6 +19.7 52 +37 +42 очень
душно
1002.5 942.2
12 21.09 З 1 10 км 10/4 800 м
[Sc Ac trans Ci fib]
+27.6 +21.8 71 +36 +36 очень
душно
1003.0 942.1 +31.1
15 21.09 З 2 4000 м 9/5 800 м
[Sc Ac trans]
+25.0 +21.3 80 +32 +32 очень
душно
1005.6 943.9
18 21.09 З 2 4000 м 9/4 800 м
[Sc Ac trans]
+24.0 +21.3 85 +30 +30 очень
душно
1006.6 944.7
21 21.09 З 2 4000 м 9/4 800 м
[Sc Ac trans Ci fib]
+23.8 +20.8 83 +30 +30 очень
душно
1006.0 944.1
00 22.09 З 2 4000 м 9/4 800 м
[Sc Ac trans Ci fib]
+23.6 +20.5 83 +29 +29 душно 1005.8 943.6
03 22.09 З 1 4000 м мгла {туман} 10/4 800 м
[Sc Ac trans Ci fib]
+24.8 +21.3 81 +31 +33 очень
душно
1007.6 945.8 +22.9
06 22.09 З 2 10 км 10/3 800 м
[Sc Ac trans Ci fib]
+27.0 +19.9 65 +33 +40 очень
душно
1008.0 946.7
09 22.09 З 3 10 км 8/5 800 м
[Cu Sc Ci fib]
+29.0 +20.2 59 +35 +41 очень
душно
1005.9 945.0
12 22.09 З 1 10 км 9/4 800 м
[Sc Ac trans Ci fib]
+26.4 +20.5 70 +33 +33 очень
душно
1006.4 945.1 +31.1
15 22.09 штиль 0 4000 м 6/3 800 м
[Sc Ac trans Ci fib]
+24.0 +20.8 82 +30 +30 очень
душно
1009.3 947.2
18 22.09 штиль 0 4000 м 1/0 600 м
[Ci fib]
+22.2 +20.1 88 +28 +28 душно 1010.5 948.2
21 22.09 З 1 4000 м 3/0
[Ci fib]
+21.8 +20.0 90 +27 +27 душно 1009.8 947.3
00 23.09 штиль 0 4000 м 1/0
[Ci fib]
+20.2 +19.3 95 +24 +24 комфорт 1010.8 948.0
03 23.09 З 1 10 км 4/1 800 м
[Sc Ci fib]
+24.4 +20.9 81 +31 +35 очень
душно
1012.1 950.0 +19.4
06 23.09 З 1 10 км 4/3 800 м
[Cu Sc Ci fib]
+28.8 +19.6 58 +35 +50 очень
душно
1011.2 950.0
09 23.09 З 2 10 км 5/5 800 м
[Cu Sc]
+30.6 +19.5 52 +37 +45 очень
душно
1008.0 947.4
12 23.09 З 1 10 км 8/5 800 м
[Cu Sc Ac trans Ci fib]
+28.6 +19.7 59 +35 +35 очень
душно
1008.5 947.4 +31.4
15 23.09 З 1 4000 м 3/1 800 м
[Sc Ci fib]
+25.0 +21.5 81 +32 +32 очень
душно
1011.7 949.6
18 23.09 З 1 4000 м 6/4 800 м
[Sc Ac trans]
+23.8 +21.5 87 +30 +30 очень
душно
1012.5 950.3
21 23.09 штиль 0 4000 м 9/6 800 м
[Sc Ac trans]
+23.0 +21.5 91 +31 +31 очень
душно
1011.2 948.9
00 24.09 штиль 0 4000 м 5/3 800 м
[Sc Ac trans Ci fib]
+22.2 +20.7 91 +29 +29 очень
душно
1010.9 948.6
03 24.09 штиль 0 10 км 8/3 800 м
[Sc Ac trans]
+24.0 +20.1 79 +30 +32 очень
душно
1013.0 950.8 +21.5
06 24.09 штиль 0 10 км 1/1 800 м
[Sc]
+29.4 +19.3 55 +35 +57 опасность
солнечного
удара
1011.4 950.4
09 24.09 З 2 10 км 5/5 800 м
[Cu Sc]
+31.8 +19.9 49 +38 +46 очень
душно
1008.0 947.6
12 24.09 З 2 10 км 8/4 800 м
[Cu Sc Ac trans Ci fib]
+30.0 +20.4 56 +37 +37 очень
душно
1007.8 947.1 +32.1
15 24.09 штиль 0 4000 м 1/1 800 м
[Sc]
+25.4 +21.9 81 +33 +33 очень
душно
1011.2 949.4
18 24.09 штиль 0 4000 м 4/4 800 м
[Sc]
+23.8 +21.8 89 +31 +31 очень
душно
1012.4 950.2
21 24.09 штиль 0 4000 м 1/1 800 м
[Sc]
+22.6 +21.2 92 +30 +30 очень
душно
1011.4 948.8
00 25.09 штиль 0 4000 м ясно +21.8 +20.9 95 +28 +28 душно 1011.2 948.7
03 25.09 штиль 0 4000 м ясно +25.0 +20.1 74 +31 +36 очень
душно
1012.4 950.3 +21.1

 

Местоположение метеостанции Pune (Maharashtra, Индия): широта 18.53 долгота 73.85 высота над уровнем моря 559 м.

В архиве по умолчанию представлена погода в Pune за последнюю неделю. Архивные данные за месяц целиком и за предыдущие месяцы, начиная с января 2011 года, Вы можете получить, выбрав интересующий диапазон дат из раскрывающегося списка и нажав кнопку "Ввод!".


*Определитесь, кто Вы:
робот инопланетянин человек

Внимание! Время в таблицах - всемирное. Для получения местного времени необходимо прибавить поправку, которая в Pune равна 5.5 ч.

Смотрите также архив погоды в соседних городах и на ближайших метеорологических станциях:

Погода в Bhira (Maharashtra, Индия) (48 км)
Погода в Mahabaleshwar (Maharashtra, Индия) (69 км)
Погода в Matheran (Maharashtra, Индия) (78 км)
Погода в Alibag (Maharashtra, Индия) (104 км)
Погода в Harnai (Maharashtra, Индия) (112 км)
Погода в Satara (Maharashtra, Индия) (114 км)
Погода в Mumbai Colaba (Maharashtra, Индия) (116 км)
Погода в Ahmednagar (Maharashtra, Индия) (117 км)
Погода в Mumbai (Maharashtra, Индия) (124 км)
Погода в Jeur (Maharashtra, Индия) (141 км)

Пояснения к столбцам:

Ветер - указаны скорость ветра в м/с - средняя за 10 мин, порывы в срок и между сроками (в фигурных скобках) и направление, откуда дует ветер: С - северный, СВ - северо-восточный, В - восточный, ЮВ - юго-восточный, Ю - южный, ЮЗ - юго-западный, З - западный, СЗ - северо-западный.
Видимость - горизонтальная дальность видимости в метрах или километрах. При видимости от 1 до 10 км при отсутствии осадков обычно наблюдается дымка, при ухудшении видимости до 1 км и менее - туман. В сухую погоду видимость может ухудшаться дымом, пылью или мглою.
Явления - указаны атмосферные явления, наблюдавшиеся в срок или в последний час перед сроком; фигурными скобками обозначены явления, наблюдавшиеся между сроками (за 1-3 часа до срока); квадратными скобками обозначены град или гололедные отложения с указанием их диаметра в мм.
Облачность - указаны через наклонную черту общая и нижняя облачность в баллах и высота нижней границы облаков в метрах; квадратными скобками обозначены формы облаков: Ci - перистые, Cs - перисто-слоистые, Cc - перисто-кучевые, Ac - высококучевые, As - высокослоистые, Sc - слоисто-кучевые, Ns - слоисто-дождевые, Cu - кучевые, Cb - кучево-дождевые. Подробнее классификацию облаков см. в Атласе облаков (PDF).
T - Температура воздуха - температура, измеренная на высоте 2 м над землей.
Td - Температура точки росы - температура, при понижении до которой содержащийся в воздухе водяной пар достигнет насыщения.
f - Относительная влажность воздуха - влажноcть воздуха, измеренная на высоте 2 м над землей.
Te - Эффективная температура - температура, которую ощущает одетый по сезону человек в тени. Характеристика душности погоды. При расчете учитывается влияние влажности воздуха и скорости ветра на теплоощущения человека.
Tes - Эффективная температура на солнце - температура, которую ощущает человек, с поправкой на солнечный нагрев. Характеристика знойности погоды. Зависит от высоты солнца над горизонтом, облачности и скорости ветра. Ночью, в пасмурную погоду, а также при ветре 12 м/с и более поправка равна нулю.
P - Атмосферное давление - приведенное к уровню моря атмосферное давление.
Po - Атмосферное давление - измеренное на уровне метеостанции атмосферное давление.
Tmin - Минимальная температура - минимум температуры воздуха на высоте 2 м над землей.
Tmax - Максимальная температура - максимум температуры воздуха на высоте 2 м над землей.
R - Количество осадков - Количество выпавших осадков за период времени, мм. При наведении курсора мыши на число - период времени, за который выпало указанное количество осадков.
R24 - Количество осадков - Количество выпавших осадков за 24 часа, мм.
S - Снежный покров - Высота снежного покрова, см. При наведении курсора мыши на число - состояние снежного покрова и степень покрытия местности в баллах.